This is the latest recevied weather packets stored in our database for station/object AA4OM-2. If no packets are shown the sender has not sent any weather packets the latest 10 day(s).
| Time | Temp. | Humidity | Pressure | Rain* | Wind** | Luminosity | Snow |
|---|---|---|---|---|---|---|---|
| 1777241394 | 28.89° C | 37% | 1012.4 hPa | 0 mm | - | 301 W/m² | - |
| 1777241091 | 28.89° C | 38% | 1012.4 hPa | 0 mm | - | 335 W/m² | - |
| 1777240789 | 28.89° C | 37% | 1012.4 hPa | 0 mm | - | 353 W/m² | - |
| 1777240487 | 28.33° C | 41% | 1012.5 hPa | 0 mm | - | 389 W/m² | - |
| 1777240184 | 28.89° C | 40% | 1012.3 hPa | 0 mm | - | 230 W/m² | - |
| 1777239882 | 29.44° C | 36% | 1012.5 hPa | 0 mm | - | 331 W/m² | - |
| 1777239579 | 29.44° C | 37% | 1012.4 hPa | 0 mm | - | 457 W/m² | - |
| 1777239274 | 28.89° C | 36% | 1012.5 hPa | 0 mm | - | 479 W/m² | - |
| 1777238972 | 29.44° C | 37% | 1012.5 hPa | 0 mm | - | 496 W/m² | - |
| 1777238669 | 29.44° C | 44% | 1012.4 hPa | 0 mm | - | 520 W/m² | - |
| 1777238365 | 28.89° C | 40% | 1012.5 hPa | 0 mm | - | 536 W/m² | - |
| 1777238062 | 28.89° C | 41% | 1012.5 hPa | 0 mm | - | 562 W/m² | - |
| 1777237759 | 28.89° C | 41% | 1012.3 hPa | 0 mm | - | 612 W/m² | - |
| 1777237456 | 28.89° C | 41% | 1012.3 hPa | 0 mm | - | 660 W/m² | - |
| 1777237153 | 27.78° C | 43% | 1012.5 hPa | 0 mm | - | 642 W/m² | - |
| 1777236851 | 27.22° C | 44% | 1012.1 hPa | 0 mm | - | 623 W/m² | - |
| 1777236551 | 27.22° C | 52% | 1012.4 hPa | 0 mm | - | 412 W/m² | - |
| 1777236248 | 27.22° C | 50% | 1012.6 hPa | 0 mm | - | 350 W/m² | - |
| 1777235943 | 26.67° C | 44% | 1012.4 hPa | 0 mm | - | 392 W/m² | - |
| 1777235639 | 26.67° C | 45% | 1012.6 hPa | 0 mm | - | 285 W/m² | - |
| 1777235337 | 26.67° C | 42% | 1012.4 hPa | 0 mm | - | 268 W/m² | - |
| 1777235032 | 26.67° C | 43% | 1012.7 hPa | 0 mm | - | 238 W/m² | - |
| 1777234729 | 27.78° C | 40% | 1012.7 hPa | 0 mm | - | 218 W/m² | - |
| 1777234425 | 28.33° C | 42% | 1012.7 hPa | 0 mm | - | 582 W/m² | - |
| 1777234120 | 27.78° C | 39% | 1012.8 hPa | 0 mm | - | 626 W/m² | - |
* Rain latest hour (hover to see other rain measurements)
** Current wind speed in m/s (hover to see current wind gust speed)